STARLINK-32528, 61724

Orbit data source: Space-Track

STARLINK-32528, 61724 is a payload satellite owned by SpaceX/Seattle (US) in LEO that was launched on Wed, 30 Oct 2024 UTC via an FALCON 9 launch vehicle from the Air Force Eastern Test Range (AFETR). Payload-class satellites include a variety of spacecraft equipped with specific instruments for various scientific and technological missions. These include communications satellites like Starlink; space stations such as the ISS; scientific satellites like the Hubble; Earth observation satellites from companies like Planet Labs, Umbra, and HawkEye 360; GPS; miniature CubeSats for education and research; and military/defense satellites.

Loading next visibility...
Identifier
61724, 2024-196T
Orbit
LEO
Country
Flag of USUS
Related business
Manufacturer
SpaceX/Seattle
Mission
Operational Commercial Communications
Bus & Motor
STARLINK V2M, Unknown motor
Mass
730 kg wet, ~700 kg dry
Launch date (UTC)
2024-10-30 (1 year ago)
Launch vehicle
FALCON 9
Launch site
Air Force Eastern Test Range (AFETR)
Object type
Payload
Rocket body
Debris
Shape & HBR
Box + 2 Pan, 17.7 m
Radar Cross Section
33.884 m², Large (>1 m²)

Expand to show TLE details & history
Last TLE update: 7 hours ago

TLE from 7 hours ago
0 STARLINK-32528
1 61724U 24196T   25353.62652363 -.00000029  00000-0  11135-4 0  9990
2 61724  53.1606 113.5774 0001057  75.6332 284.4786 15.30188372 63691
Epoch: 2025-12-19T15:02Z
TLE epoch observation values (Epoch: 2025-12-19T15:02:11.641Z)
Latitude
-0.00003°
Longitude
159.5639°
Altitude
475.969 km
Speed
7.629 km/s
True Right ascension
07h 34m 18s
True Declination
0° 00' 00"
Sunlit
Object was in full shadow at epoch
Visualization orbit readout
Latitude
Unknown
Longitude
Unknown
Altitude
Unknown
Speed
Unknown
Apparent Right ascension
Unknown
Apparent Declination
Unknown
Sunlit
N/A
Visualization observer readout
Local Sidereal Time
21:04:36
Azimuth
Unknown
Elevation
Unknown
Doppler factor
Unknown
Orbital elements
Apogee altitude
476.231 km
Perigee altitude
474.782 km
Semi-major axis
6,853.643 km
Eccentricity
0.00011
Inclination
53.1606°
RAAN
113.5774°
Arg. of periapsis
75.6332°
True anomaly
284.46687°
Mean anomaly
284.4786°
Eccentric anomaly
284.47274°
Mean motion
3.82526 °/min
Orbital period
94.11 mins
BSTAR
0.000011135
Loading maneuver chart data...
Computing Atmospheric mass density...
Loading historical data...
Loading historical data...
Loading historical data...
Loading historical data...
Loading historical data...
Loading historical data...
Loading historical data...

Documentation

Showing up to 5 results
|